Time,TemperatureF,DewpointF,PressureIn,WindDirection,WindDirectionDegrees,WindSpeedMPH,WindSpeedGustMPH,Humidity,HourlyPrecipIn,Conditions,Clouds,dailyrainin,SoftwareType,DateUTC
2013-02-05 00:04:00,44.7,41.7,29.90,ESE,123,0.0,0.0,89,0.00,,,0.00,Wunderground v.1.15,2013-02-05 08:04:00,
2013-02-05 00:10:00,44.7,41.7,29.90,ESE,123,0.0,0.0,89,0.00,,,0.00,Wunderground v.1.15,2013-02-05 08:10:00,
2013-02-05 00:16:00,44.8,41.8,29.90,ESE,122,0.0,0.0,89,0.00,,,0.00,Wunderground v.1.15,2013-02-05 08:16:00,
2013-02-05 00:22:00,44.9,41.9,29.90,ESE,123,0.0,0.0,89,0.00,,,0.00,Wunderground v.1.15,2013-02-05 08:22:00,
2013-02-05 00:28:00,45.0,42.0,29.90,ESE,123,0.0,0.0,89,0.00,,,0.00,Wunderground v.1.15,2013-02-05 08:28:00,
2013-02-05 00:34:00,45.0,42.0,29.90,ESE,122,0.0,0.0,89,0.00,,,0.00,Wunderground v.1.15,2013-02-05 08:34:00,
2013-02-05 00:40:00,45.0,41.7,29.90,ESE,122,0.0,0.0,88,0.00,,,0.00,Wunderground v.1.15,2013-02-05 08:40:00,
2013-02-05 00:46:00,45.0,41.7,29.90,ESE,123,0.0,1.0,88,0.00,,,0.00,Wunderground v.1.15,2013-02-05 08:46:00,
2013-02-05 00:52:00,45.0,41.7,29.90,ESE,122,0.0,2.0,88,0.00,,,0.00,Wunderground v.1.15,2013-02-05 08:52:00,
2013-02-05 00:58:00,44.8,41.5,29.90,ESE,123,1.0,2.0,88,0.00,,,0.00,Wunderground v.1.15,2013-02-05 08:58:00,
2013-02-05 01:04:00,44.6,41.3,29.90,ESE,123,0.0,1.0,88,0.00,,,0.00,Wunderground v.1.15,2013-02-05 09:04:00,
2013-02-05 01:10:00,44.5,41.2,29.90,ESE,123,0.0,0.0,88,0.00,,,0.00,Wunderground v.1.15,2013-02-05 09:10:00,
2013-02-05 01:16:00,44.3,41.0,29.90,ESE,123,0.0,0.0,88,0.00,,,0.00,Wunderground v.1.15,2013-02-05 09:16:00,
2013-02-05 01:22:00,44.2,40.9,29.90,ESE,122,0.0,0.0,88,0.00,,,0.00,Wunderground v.1.15,2013-02-05 09:22:00,
2013-02-05 01:28:00,44.2,40.9,29.90,ESE,122,0.0,2.0,88,0.00,,,0.00,Wunderground v.1.15,2013-02-05 09:28:00,
2013-02-05 01:34:00,44.1,40.8,29.90,ESE,123,0.0,0.0,88,0.00,,,0.00,Wunderground v.1.15,2013-02-05 09:34:00,
2013-02-05 01:40:00,44.1,40.8,29.90,ESE,122,0.0,0.0,88,0.00,,,0.00,Wunderground v.1.15,2013-02-05 09:40:00,
2013-02-05 01:45:00,44.1,40.8,29.90,ESE,123,1.0,1.0,88,0.00,,,0.00,Wunderground v.1.15,2013-02-05 09:45:00,
2013-02-05 01:52:00,44.0,40.7,29.91,ESE,122,0.0,0.0,88,0.00,,,0.00,Wunderground v.1.15,2013-02-05 09:52:00,
2013-02-05 01:58:00,44.0,40.7,29.91,ESE,122,0.0,0.0,88,0.00,,,0.00,Wunderground v.1.15,2013-02-05 09:58:00,
2013-02-05 02:04:00,44.0,40.7,29.90,ESE,123,0.0,0.0,88,0.00,,,0.00,Wunderground v.1.15,2013-02-05 10:04:00,
2013-02-05 02:10:00,44.0,41.0,29.90,SSE,149,1.0,1.0,89,0.00,,,0.00,Wunderground v.1.15,2013-02-05 10:10:00,
2013-02-05 02:16:00,44.0,41.0,29.90,SSE,149,1.0,1.0,89,0.00,,,0.00,Wunderground v.1.15,2013-02-05 10:16:00,
2013-02-05 02:22:00,44.0,41.0,29.90,SSE,149,0.0,0.0,89,0.00,,,0.00,Wunderground v.1.15,2013-02-05 10:22:00,
2013-02-05 02:28:00,44.0,41.0,29.91,SSE,150,1.0,4.0,89,0.00,,,0.00,Wunderground v.1.15,2013-02-05 10:28:00,
2013-02-05 02:34:00,43.9,40.9,29.91,SSE,151,1.0,2.0,89,0.00,,,0.00,Wunderground v.1.15,2013-02-05 10:34:00,
2013-02-05 02:40:00,43.9,40.9,29.91,SSE,151,1.0,1.0,89,0.00,,,0.00,Wunderground v.1.15,2013-02-05 10:40:00,
2013-02-05 02:46:00,43.8,40.8,29.91,SSE,151,1.0,3.0,89,0.00,,,0.00,Wunderground v.1.15,2013-02-05 10:46:00,
2013-02-05 02:52:00,43.8,40.8,29.90,SSE,151,2.0,2.0,89,0.00,,,0.00,Wunderground v.1.15,2013-02-05 10:52:00,
2013-02-05 02:58:00,43.7,40.7,29.90,SE,145,2.0,5.0,89,0.00,,,0.00,Wunderground v.1.15,2013-02-05 10:58:00,
2013-02-05 03:04:00,43.6,40.9,29.90,SE,132,2.0,3.0,90,0.00,,,0.00,Wunderground v.1.15,2013-02-05 11:04:00,
2013-02-05 03:10:00,43.6,40.9,29.90,SE,132,1.0,1.0,90,0.00,,,0.00,Wunderground v.1.15,2013-02-05 11:10:00,
2013-02-05 03:16:00,43.5,40.8,29.90,SE,132,0.0,1.0,90,0.00,,,0.00,Wunderground v.1.15,2013-02-05 11:16:00,
2013-02-05 03:22:00,43.4,40.7,29.89,SE,132,0.0,2.0,90,0.00,,,0.00,Wunderground v.1.15,2013-02-05 11:22:00,
2013-02-05 03:28:00,43.4,40.7,29.89,SE,132,1.0,2.0,90,0.00,,,0.00,Wunderground v.1.15,2013-02-05 11:28:00,
2013-02-05 03:34:00,43.3,40.6,29.88,SE,132,1.0,1.0,90,0.00,,,0.00,Wunderground v.1.15,2013-02-05 11:34:00,
2013-02-05 03:40:00,43.3,40.6,29.88,SE,132,1.0,1.0,90,0.00,,,0.00,Wunderground v.1.15,2013-02-05 11:40:00,
2013-02-05 03:46:00,43.2,40.5,29.89,SE,132,0.0,1.0,90,0.00,,,0.00,Wunderground v.1.15,2013-02-05 11:46:00,
2013-02-05 03:52:00,43.3,40.6,29.88,SE,132,0.0,0.0,90,0.00,,,0.00,Wunderground v.1.15,2013-02-05 11:52:00,
2013-02-05 03:58:00,43.3,40.6,29.88,SE,132,0.0,0.0,90,0.00,,,0.00,Wunderground v.1.15,2013-02-05 11:58:00,
2013-02-05 04:04:00,43.3,40.6,29.88,SE,132,0.0,0.0,90,0.00,,,0.00,Wunderground v.1.15,2013-02-05 12:04:00,
2013-02-05 04:10:00,43.3,40.6,29.89,SE,132,0.0,1.0,90,0.00,,,0.00,Wunderground v.1.15,2013-02-05 12:10:00,
2013-02-05 04:16:00,43.4,40.7,29.89,SE,132,0.0,3.0,90,0.00,,,0.00,Wunderground v.1.15,2013-02-05 12:16:00,
2013-02-05 04:22:00,43.5,40.8,29.89,SE,132,0.0,2.0,90,0.00,,,0.00,Wunderground v.1.15,2013-02-05 12:22:00,
2013-02-05 04:28:00,43.6,41.1,29.89,SE,133,1.0,3.0,91,0.00,,,0.00,Wunderground v.1.15,2013-02-05 12:28:00,
2013-02-05 04:34:00,43.8,41.3,29.89,SE,134,1.0,3.0,91,0.00,,,0.00,Wunderground v.1.15,2013-02-05 12:34:00,
2013-02-05 04:40:00,43.9,41.4,29.89,SE,135,1.0,1.0,91,0.00,,,0.00,Wunderground v.1.15,2013-02-05 12:40:00,
2013-02-05 04:46:00,44.1,41.6,29.88,SE,135,1.0,2.0,91,0.00,,,0.00,Wunderground v.1.15,2013-02-05 12:46:00,
2013-02-05 04:52:00,44.1,41.4,29.89,SE,134,1.0,1.0,90,0.00,,,0.00,Wunderground v.1.15,2013-02-05 12:52:00,
2013-02-05 04:58:00,44.2,41.5,29.89,SE,135,0.0,2.0,90,0.00,,,0.00,Wunderground v.1.15,2013-02-05 12:58:00,
2013-02-05 05:04:00,44.2,41.5,29.89,SE,135,0.0,1.0,90,0.00,,,0.01,Wunderground v.1.15,2013-02-05 13:04:00,
2013-02-05 05:10:00,44.2,41.5,29.89,SE,135,0.0,0.0,90,0.00,,,0.01,Wunderground v.1.15,2013-02-05 13:10:00,
2013-02-05 05:16:00,44.2,41.5,29.89,SE,134,0.0,0.0,90,0.00,,,0.01,Wunderground v.1.15,2013-02-05 13:16:00,
2013-02-05 05:22:00,44.2,41.5,29.88,SE,135,0.0,0.0,90,0.00,,,0.01,Wunderground v.1.15,2013-02-05 13:22:00,
2013-02-05 05:28:00,44.1,41.4,29.88,SE,135,0.0,1.0,90,0.00,,,0.01,Wunderground v.1.15,2013-02-05 13:28:00,
2013-02-05 05:34:00,44.1,41.6,29.88,SE,135,0.0,1.0,91,0.00,,,0.01,Wunderground v.1.15,2013-02-05 13:34:00,
2013-02-05 05:40:00,44.0,41.5,29.88,SE,135,1.0,1.0,91,0.00,,,0.01,Wunderground v.1.15,2013-02-05 13:40:00,
2013-02-05 05:46:00,44.0,41.5,29.87,SE,135,0.0,1.0,91,0.00,,,0.01,Wunderground v.1.15,2013-02-05 13:46:00,
2013-02-05 05:52:00,43.9,41.4,29.87,SE,135,0.0,1.0,91,0.00,,,0.01,Wunderground v.1.15,2013-02-05 13:52:00,
2013-02-05 05:58:00,43.9,41.4,29.87,SE,135,1.0,1.0,91,0.00,,,0.01,Wunderground v.1.15,2013-02-05 13:58:00,
2013-02-05 06:04:00,43.9,41.4,29.87,SE,135,1.0,1.0,91,0.00,,,0.01,Wunderground v.1.15,2013-02-05 14:04:00,
2013-02-05 06:10:00,43.9,41.4,29.87,SE,131,2.0,2.0,91,0.00,,,0.01,Wunderground v.1.15,2013-02-05 14:10:00,
2013-02-05 06:16:00,44.0,41.5,29.87,SE,126,3.0,3.0,91,0.00,,,0.01,Wunderground v.1.15,2013-02-05 14:16:00,
2013-02-05 06:22:00,44.0,41.5,29.87,ESE,122,3.0,4.0,91,0.00,,,0.01,Wunderground v.1.15,2013-02-05 14:22:00,
2013-02-05 06:28:00,44.1,41.6,29.87,SE,125,3.0,4.0,91,0.00,,,0.01,Wunderground v.1.15,2013-02-05 14:28:00,
2013-02-05 06:34:00,44.2,41.7,29.87,ESE,121,2.0,4.0,91,0.00,,,0.01,Wunderground v.1.15,2013-02-05 14:34:00,
2013-02-05 06:40:00,44.2,41.7,29.87,ESE,123,3.0,3.0,91,0.00,,,0.01,Wunderground v.1.15,2013-02-05 14:40:00,
2013-02-05 06:46:00,44.2,41.7,29.87,ESE,122,3.0,3.0,91,0.00,,,0.01,Wunderground v.1.15,2013-02-05 14:46:00,
2013-02-05 06:52:00,44.3,41.8,29.86,SE,126,3.0,3.0,91,0.00,,,0.01,Wunderground v.1.15,2013-02-05 14:52:00,
2013-02-05 06:58:00,44.3,41.8,29.86,SE,133,3.0,4.0,91,0.00,,,0.01,Wunderground v.1.15,2013-02-05 14:58:00,
2013-02-05 07:04:00,44.3,41.8,29.86,SE,124,3.0,4.0,91,0.00,,,0.01,Wunderground v.1.15,2013-02-05 15:04:00,
2013-02-05 07:10:00,44.3,41.8,29.86,SE,134,3.0,3.0,91,0.00,,,0.01,Wunderground v.1.15,2013-02-05 15:10:00,
2013-02-05 07:15:00,44.4,41.9,29.86,SE,129,3.0,4.0,91,0.00,,,0.01,Wunderground v.1.15,2013-02-05 15:15:00,
2013-02-05 07:22:00,44.4,41.9,29.87,SE,138,3.0,5.0,91,0.00,,,0.01,Wunderground v.1.15,2013-02-05 15:22:00,
2013-02-05 07:28:00,44.4,41.7,29.87,SSE,156,3.0,6.0,90,0.00,,,0.01,Wunderground v.1.15,2013-02-05 15:28:00,
2013-02-05 07:34:00,44.5,41.7,29.87,SE,144,3.0,4.0,90,0.00,,,0.01,Wunderground v.1.15,2013-02-05 15:34:00,
2013-02-05 07:40:00,44.5,41.7,29.87,SE,132,3.0,6.0,90,0.00,,,0.01,Wunderground v.1.15,2013-02-05 15:40:00,
2013-02-05 07:46:00,44.5,42.0,29.87,ESE,121,3.0,6.0,91,0.00,,,0.01,Wunderground v.1.15,2013-02-05 15:46:00,
2013-02-05 07:52:00,44.5,41.7,29.88,SE,142,3.0,3.0,90,0.00,,,0.01,Wunderground v.1.15,2013-02-05 15:52:00,
2013-02-05 07:58:00,44.5,41.7,29.88,SE,130,2.0,3.0,90,0.00,,,0.01,Wunderground v.1.15,2013-02-05 15:58:00,
2013-02-05 08:04:00,44.5,41.7,29.88,SE,146,2.0,2.0,90,0.00,,,0.01,Wunderground v.1.15,2013-02-05 16:04:00,
2013-02-05 08:10:00,44.4,41.9,29.88,SE,142,2.0,3.0,91,0.00,,,0.01,Wunderground v.1.15,2013-02-05 16:10:00,
2013-02-05 08:16:00,44.4,41.9,29.88,SE,129,2.0,3.0,91,0.00,,,0.01,Wunderground v.1.15,2013-02-05 16:16:00,
2013-02-05 08:22:00,44.4,41.9,29.88,SE,126,2.0,2.0,91,0.00,,,0.01,Wunderground v.1.15,2013-02-05 16:22:00,
2013-02-05 08:28:00,44.4,41.9,29.88,SE,126,2.0,2.0,91,0.00,,,0.01,Wunderground v.1.15,2013-02-05 16:28:00,
2013-02-05 08:34:00,44.4,41.9,29.88,ESE,123,2.0,3.0,91,0.00,,,0.01,Wunderground v.1.15,2013-02-05 16:34:00,
2013-02-05 08:40:00,44.4,41.9,29.89,SE,124,2.0,2.0,91,0.00,,,0.01,Wunderground v.1.15,2013-02-05 16:40:00,
2013-02-05 08:46:00,44.4,41.9,29.89,ESE,123,1.0,2.0,91,0.00,,,0.01,Wunderground v.1.15,2013-02-05 16:46:00,
2013-02-05 08:52:00,44.4,42.2,29.88,ESE,123,1.0,1.0,92,0.00,,,0.01,Wunderground v.1.15,2013-02-05 16:52:00,
2013-02-05 08:58:00,44.5,42.3,29.89,ESE,123,1.0,3.0,92,0.00,,,0.02,Wunderground v.1.15,2013-02-05 16:58:00,
2013-02-05 09:04:00,44.5,42.3,29.89,SE,124,1.0,1.0,92,0.00,,,0.02,Wunderground v.1.15,2013-02-05 17:04:00,
2013-02-05 09:10:00,44.5,42.3,29.89,SE,127,1.0,2.0,92,0.00,,,0.02,Wunderground v.1.15,2013-02-05 17:10:00,
2013-02-05 09:16:00,44.6,42.4,29.89,ESE,119,1.0,3.0,92,0.00,,,0.02,Wunderground v.1.15,2013-02-05 17:16:00,
2013-02-05 09:22:00,44.6,42.4,29.89,ESE,119,1.0,2.0,92,0.00,,,0.02,Wunderground v.1.15,2013-02-05 17:22:00,
2013-02-05 09:28:00,44.7,42.5,29.89,ESE,119,1.0,3.0,92,0.00,,,0.02,Wunderground v.1.15,2013-02-05 17:28:00,
2013-02-05 09:34:00,44.8,42.6,29.89,ESE,119,1.0,1.0,92,0.00,,,0.02,Wunderground v.1.15,2013-02-05 17:34:00,
2013-02-05 09:40:00,44.9,42.7,29.89,ESE,121,0.0,1.0,92,0.00,,,0.02,Wunderground v.1.15,2013-02-05 17:40:00,
2013-02-05 09:46:00,45.0,42.8,29.89,ESE,121,1.0,2.0,92,0.00,,,0.02,Wunderground v.1.15,2013-02-05 17:46:00,
2013-02-05 09:52:00,45.0,43.1,29.89,ESE,121,1.0,1.0,93,0.00,,,0.02,Wunderground v.1.15,2013-02-05 17:52:00,
2013-02-05 09:58:00,45.0,43.1,29.89,ESE,121,0.0,1.0,93,0.00,,,0.02,Wunderground v.1.15,2013-02-05 17:58:00,
2013-02-05 10:04:00,45.1,43.2,29.89,ESE,121,1.0,3.0,93,0.00,,,0.02,Wunderground v.1.15,2013-02-05 18:04:00,
2013-02-05 10:10:00,45.2,43.3,29.89,ESE,121,2.0,4.0,93,0.00,,,0.02,Wunderground v.1.15,2013-02-05 18:10:00,
2013-02-05 10:16:00,45.4,43.5,29.89,ESE,121,1.0,4.0,93,0.00,,,0.02,Wunderground v.1.15,2013-02-05 18:16:00,
2013-02-05 10:22:00,45.5,43.6,29.89,SSE,168,1.0,3.0,93,0.00,,,0.02,Wunderground v.1.15,2013-02-05 18:22:00,
2013-02-05 10:28:00,45.7,43.8,29.89,SE,136,2.0,4.0,93,0.00,,,0.02,Wunderground v.1.15,2013-02-05 18:28:00,
2013-02-05 10:34:00,45.9,44.0,29.89,SE,144,2.0,2.0,93,0.00,,,0.02,Wunderground v.1.15,2013-02-05 18:34:00,
2013-02-05 10:40:00,46.3,44.4,29.89,South,173,2.0,3.0,93,0.00,,,0.02,Wunderground v.1.15,2013-02-05 18:40:00,
2013-02-05 10:46:00,46.6,44.7,29.89,SSE,156,3.0,10.0,93,0.00,,,0.02,Wunderground v.1.15,2013-02-05 18:46:00,
2013-02-05 10:52:00,47.0,45.1,29.89,SE,146,4.0,4.0,93,0.00,,,0.02,Wunderground v.1.15,2013-02-05 18:52:00,
2013-02-05 10:58:00,47.2,45.0,29.89,SSW,205,5.0,8.0,92,0.00,,,0.02,Wunderground v.1.15,2013-02-05 18:58:00,
2013-02-05 11:04:00,47.3,44.8,29.89,South,182,5.0,6.0,91,0.00,,,0.02,Wunderground v.1.15,2013-02-05 19:04:00,
2013-02-05 11:10:00,47.6,44.8,29.89,South,188,4.0,4.0,90,0.00,,,0.02,Wunderground v.1.15,2013-02-05 19:10:00,
2013-02-05 11:16:00,47.8,45.0,29.89,SSW,192,3.0,5.0,90,0.00,,,0.02,Wunderground v.1.15,2013-02-05 19:16:00,
2013-02-05 11:22:00,48.0,44.9,29.89,ESE,123,3.0,3.0,89,0.00,,,0.02,Wunderground v.1.15,2013-02-05 19:22:00,
2013-02-05 11:28:00,48.2,44.8,29.89,South,177,4.0,5.0,88,0.00,,,0.02,Wunderground v.1.15,2013-02-05 19:28:00,
2013-02-05 11:34:00,48.3,44.9,29.89,SE,129,3.0,4.0,88,0.00,,,0.02,Wunderground v.1.15,2013-02-05 19:34:00,
2013-02-05 11:40:00,48.6,44.9,29.89,South,190,3.0,3.0,87,0.00,,,0.02,Wunderground v.1.15,2013-02-05 19:40:00,
2013-02-05 11:46:00,48.7,44.7,29.89,SE,133,2.0,5.0,86,0.00,,,0.02,Wunderground v.1.15,2013-02-05 19:46:00,
2013-02-05 11:52:00,48.8,44.8,29.89,South,184,3.0,4.0,86,0.00,,,0.02,Wunderground v.1.15,2013-02-05 19:52:00,
2013-02-05 11:58:00,48.9,44.6,29.89,SE,146,3.0,9.0,85,0.00,,,0.02,Wunderground v.1.15,2013-02-05 19:58:00,
2013-02-05 12:04:00,49.1,45.1,29.89,South,176,3.0,3.0,86,0.00,,,0.02,Wunderground v.1.15,2013-02-05 20:04:00,
2013-02-05 12:10:00,49.8,46.1,29.89,South,180,2.0,4.0,87,0.00,,,0.02,Wunderground v.1.15,2013-02-05 20:10:00,
2013-02-05 12:16:00,50.3,46.3,29.89,SSE,157,3.0,9.0,86,0.00,,,0.02,Wunderground v.1.15,2013-02-05 20:16:00,
2013-02-05 12:22:00,50.5,45.8,29.88,SE,143,4.0,5.0,84,0.00,,,0.02,Wunderground v.1.15,2013-02-05 20:22:00,
2013-02-05 12:28:00,50.3,45.3,29.88,SE,134,4.0,5.0,83,0.00,,,0.02,Wunderground v.1.15,2013-02-05 20:28:00,
2013-02-05 12:34:00,50.3,45.3,29.88,ESE,113,3.0,4.0,83,0.00,,,0.02,Wunderground v.1.15,2013-02-05 20:34:00,
2013-02-05 12:40:00,50.3,45.3,29.88,SSE,148,2.0,8.0,83,0.00,,,0.02,Wunderground v.1.15,2013-02-05 20:40:00,
2013-02-05 12:46:00,50.4,45.4,29.88,South,186,4.0,8.0,83,0.00,,,0.02,Wunderground v.1.15,2013-02-05 20:46:00,
2013-02-05 12:52:00,50.7,45.1,29.88,South,183,4.0,5.0,81,0.00,,,0.02,Wunderground v.1.15,2013-02-05 20:52:00,
2013-02-05 12:58:00,51.0,45.0,29.88,South,187,3.0,6.0,80,0.00,,,0.02,Wunderground v.1.15,2013-02-05 20:58:00,
2013-02-05 13:04:00,51.2,45.6,29.88,SSW,194,3.0,5.0,81,0.00,,,0.02,Wunderground v.1.15,2013-02-05 21:04:00,
2013-02-05 13:10:00,51.3,45.3,29.87,SSW,193,3.0,3.0,80,0.00,,,0.02,Wunderground v.1.15,2013-02-05 21:10:00,
2013-02-05 13:16:00,51.9,45.9,29.87,SE,139,2.0,4.0,80,0.00,,,0.02,Wunderground v.1.15,2013-02-05 21:16:00,
2013-02-05 13:22:00,52.3,45.3,29.87,SSW,198,3.0,7.0,77,0.00,,,0.02,Wunderground v.1.15,2013-02-05 21:22:00,
2013-02-05 13:28:00,52.1,44.8,29.87,SW,236,5.0,7.0,76,0.00,,,0.02,Wunderground v.1.15,2013-02-05 21:28:00,
2013-02-05 13:34:00,52.0,44.0,29.86,South,184,5.0,5.0,74,0.00,,,0.02,Wunderground v.1.15,2013-02-05 21:34:00,
2013-02-05 13:40:00,52.0,43.6,29.86,SSE,161,5.0,5.0,73,0.00,,,0.02,Wunderground v.1.15,2013-02-05 21:40:00,
2013-02-05 13:46:00,52.1,43.3,29.86,SSE,149,4.0,6.0,72,0.00,,,0.02,Wunderground v.1.15,2013-02-05 21:46:00,
2013-02-05 13:52:00,52.5,44.1,29.86,South,180,3.0,3.0,73,0.00,,,0.02,Wunderground v.1.15,2013-02-05 21:52:00,
2013-02-05 13:58:00,52.7,43.2,29.86,SSW,206,4.0,6.0,70,0.00,,,0.02,Wunderground v.1.15,2013-02-05 21:58:00,
2013-02-05 14:04:00,52.7,43.6,29.86,SE,138,5.0,5.0,71,0.00,,,0.02,Wunderground v.1.15,2013-02-05 22:04:00,
2013-02-05 14:10:00,52.6,43.5,29.86,SSE,155,5.0,5.0,71,0.00,,,0.02,Wunderground v.1.15,2013-02-05 22:10:00,
2013-02-05 14:16:00,52.4,43.6,29.86,SSE,165,4.0,6.0,72,0.00,,,0.02,Wunderground v.1.15,2013-02-05 22:16:00,
2013-02-05 14:22:00,52.3,43.5,29.86,SE,137,3.0,5.0,72,0.00,,,0.02,Wunderground v.1.15,2013-02-05 22:22:00,
2013-02-05 14:28:00,52.2,43.8,29.85,SSE,156,3.0,5.0,73,0.00,,,0.02,Wunderground v.1.15,2013-02-05 22:28:00,
2013-02-05 14:34:00,52.1,43.7,29.85,South,172,3.0,9.0,73,0.00,,,0.02,Wunderground v.1.15,2013-02-05 22:34:00,
2013-02-05 14:40:00,51.9,43.5,29.86,South,184,4.0,11.0,73,0.00,,,0.02,Wunderground v.1.15,2013-02-05 22:40:00,
2013-02-05 14:46:00,51.7,43.0,29.86,South,169,5.0,11.0,72,0.00,,,0.02,Wunderground v.1.15,2013-02-05 22:46:00,
2013-02-05 14:52:00,51.7,43.3,29.86,SSW,200,4.0,5.0,73,0.00,,,0.02,Wunderground v.1.15,2013-02-05 22:52:00,
2013-02-05 14:58:00,51.8,43.1,29.86,SW,217,5.0,5.0,72,0.00,,,0.02,Wunderground v.1.15,2013-02-05 22:58:00,
2013-02-05 15:04:00,51.5,42.4,29.87,South,184,7.0,7.0,71,0.00,,,0.02,Wunderground v.1.15,2013-02-05 23:04:00,
2013-02-05 15:10:00,51.3,42.2,29.87,SW,218,6.0,12.0,71,0.00,,,0.02,Wunderground v.1.15,2013-02-05 23:10:00,
2013-02-05 15:16:00,51.2,42.5,29.87,SSW,205,6.0,12.0,72,0.00,,,0.02,Wunderground v.1.15,2013-02-05 23:16:00,
2013-02-05 15:22:00,51.2,42.8,29.87,South,172,7.0,10.0,73,0.00,,,0.02,Wunderground v.1.15,2013-02-05 23:22:00,
2013-02-05 15:28:00,51.3,42.9,29.87,SSW,194,6.0,10.0,73,0.00,,,0.02,Wunderground v.1.15,2013-02-05 23:28:00,
2013-02-05 15:34:00,51.6,42.9,29.86,SE,130,6.0,6.0,72,0.00,,,0.02,Wunderground v.1.15,2013-02-05 23:34:00,
2013-02-05 15:40:00,52.0,42.9,29.86,SSE,154,5.0,5.0,71,0.00,,,0.02,Wunderground v.1.15,2013-02-05 23:40:00,
2013-02-05 15:46:00,52.2,43.4,29.86,South,173,4.0,5.0,72,0.00,,,0.02,Wunderground v.1.15,2013-02-05 23:46:00,
2013-02-05 15:52:00,51.8,42.7,29.87,SSW,199,5.0,7.0,71,0.00,,,0.02,Wunderground v.1.15,2013-02-05 23:52:00,
2013-02-05 15:58:00,51.2,42.8,29.87,SSW,207,7.0,10.0,73,0.00,,,0.02,Wunderground v.1.15,2013-02-05 23:58:00,
2013-02-05 16:04:00,50.7,43.1,29.87,South,179,7.0,8.0,75,0.00,,,0.02,Wunderground v.1.15,2013-02-06 00:04:00,
2013-02-05 16:10:00,50.3,43.0,29.88,SSE,168,6.0,8.0,76,0.00,,,0.02,Wunderground v.1.15,2013-02-06 00:10:00,
2013-02-05 16:16:00,50.1,43.2,29.88,SSW,196,7.0,8.0,77,0.00,,,0.02,Wunderground v.1.15,2013-02-06 00:16:00,
2013-02-05 16:22:00,49.9,43.0,29.88,SSE,159,6.0,7.0,77,0.00,,,0.02,Wunderground v.1.15,2013-02-06 00:22:00,
2013-02-05 16:28:00,49.9,43.0,29.88,SE,140,5.0,9.0,77,0.00,,,0.02,Wunderground v.1.15,2013-02-06 00:28:00,
2013-02-05 16:34:00,49.8,42.9,29.88,South,169,5.0,9.0,77,0.00,,,0.02,Wunderground v.1.15,2013-02-06 00:34:00,
2013-02-05 16:40:00,49.6,43.0,29.88,South,185,5.0,5.0,78,0.00,,,0.02,Wunderground v.1.15,2013-02-06 00:40:00,
2013-02-05 16:46:00,49.5,42.9,29.88,SSW,192,5.0,5.0,78,0.00,,,0.02,Wunderground v.1.15,2013-02-06 00:46:00,
2013-02-05 16:52:00,49.3,43.1,29.89,SSE,168,4.0,4.0,79,0.00,,,0.02,Wunderground v.1.15,2013-02-06 00:52:00,
2013-02-05 16:58:00,49.2,43.0,29.88,South,173,5.0,11.0,79,0.00,,,0.02,Wunderground v.1.15,2013-02-06 00:58:00,
2013-02-05 17:04:00,48.9,42.7,29.89,South,186,6.0,12.0,79,0.00,,,0.02,Wunderground v.1.15,2013-02-06 01:04:00,
2013-02-05 17:10:00,48.8,42.9,29.89,SSW,211,5.0,7.0,80,0.00,,,0.02,Wunderground v.1.15,2013-02-06 01:10:00,
2013-02-05 17:15:00,48.5,42.9,29.89,SSW,195,4.0,7.0,81,0.00,,,0.02,Wunderground v.1.15,2013-02-06 01:15:00,
2013-02-05 17:21:00,48.3,42.7,29.89,SSW,201,3.0,7.0,81,0.00,,,0.02,Wunderground v.1.15,2013-02-06 01:21:00,
2013-02-05 17:28:00,48.0,42.8,29.89,SSE,159,3.0,7.0,82,0.00,,,0.02,Wunderground v.1.15,2013-02-06 01:28:00,
2013-02-05 17:34:00,47.7,42.8,29.89,SSW,199,3.0,5.0,83,0.00,,,0.02,Wunderground v.1.15,2013-02-06 01:34:00,
2013-02-05 17:40:00,47.4,42.5,29.89,SSW,192,3.0,5.0,83,0.00,,,0.02,Wunderground v.1.15,2013-02-06 01:40:00,
2013-02-05 17:46:00,47.2,42.6,29.89,SE,144,3.0,5.0,84,0.00,,,0.02,Wunderground v.1.15,2013-02-06 01:46:00,
2013-02-05 17:52:00,47.0,42.4,29.89,SSW,195,3.0,3.0,84,0.00,,,0.02,Wunderground v.1.15,2013-02-06 01:52:00,
2013-02-05 17:58:00,46.8,42.2,29.89,SSE,155,4.0,6.0,84,0.00,,,0.02,Wunderground v.1.15,2013-02-06 01:58:00,
2013-02-05 18:04:00,46.6,42.0,29.89,SSE,166,4.0,4.0,84,0.00,,,0.02,Wunderground v.1.15,2013-02-06 02:04:00,
2013-02-05 18:10:00,46.4,41.8,29.90,South,187,3.0,3.0,84,0.00,,,0.02,Wunderground v.1.15,2013-02-06 02:10:00,
2013-02-05 18:16:00,46.3,41.7,29.90,SSW,193,3.0,3.0,84,0.00,,,0.02,Wunderground v.1.15,2013-02-06 02:16:00,
2013-02-05 18:22:00,46.1,41.8,29.90,SSW,197,3.0,3.0,85,0.00,,,0.02,Wunderground v.1.15,2013-02-06 02:22:00,
2013-02-05 18:28:00,46.0,41.7,29.90,South,171,2.0,3.0,85,0.00,,,0.02,Wunderground v.1.15,2013-02-06 02:28:00,
2013-02-05 18:34:00,45.8,41.5,29.90,South,188,2.0,6.0,85,0.00,,,0.02,Wunderground v.1.15,2013-02-06 02:34:00,
2013-02-05 18:40:00,45.6,41.4,29.90,South,175,1.0,3.0,85,0.00,,,0.02,Wunderground v.1.15,2013-02-06 02:40:00,
2013-02-05 18:46:00,45.5,41.3,29.91,South,174,1.0,3.0,85,0.00,,,0.02,Wunderground v.1.15,2013-02-06 02:46:00,
2013-02-05 18:52:00,45.4,41.5,29.91,South,174,1.0,1.0,86,0.00,,,0.02,Wunderground v.1.15,2013-02-06 02:52:00,
2013-02-05 18:58:00,45.2,41.3,29.91,South,173,0.0,1.0,86,0.00,,,0.02,Wunderground v.1.15,2013-02-06 02:58:00,
2013-02-05 19:04:00,45.0,41.1,29.92,South,174,0.0,2.0,86,0.00,,,0.02,Wunderground v.1.15,2013-02-06 03:04:00,
2013-02-05 19:10:00,45.0,41.1,29.92,SSE,162,1.0,1.0,86,0.00,,,0.02,Wunderground v.1.15,2013-02-06 03:10:00,
2013-02-05 19:16:00,44.9,41.3,29.92,SSE,162,0.0,1.0,87,0.00,,,0.02,Wunderground v.1.15,2013-02-06 03:16:00,
2013-02-05 19:22:00,44.7,40.8,29.92,SSE,162,0.0,0.0,86,0.00,,,0.02,Wunderground v.1.15,2013-02-06 03:22:00,
2013-02-05 19:28:00,44.6,41.0,29.92,SSE,160,1.0,1.0,87,0.00,,,0.02,Wunderground v.1.15,2013-02-06 03:28:00,
2013-02-05 19:34:00,44.5,40.9,29.93,SSE,160,1.0,1.0,87,0.00,,,0.02,Wunderground v.1.15,2013-02-06 03:34:00,
2013-02-05 19:40:00,44.5,40.9,29.93,SSE,160,0.0,0.0,87,0.00,,,0.02,Wunderground v.1.15,2013-02-06 03:40:00,
2013-02-05 19:46:00,44.5,41.2,29.93,SSE,160,0.0,0.0,88,0.00,,,0.02,Wunderground v.1.15,2013-02-06 03:46:00,
2013-02-05 19:52:00,44.6,41.3,29.93,SSE,160,0.0,0.0,88,0.00,,,0.02,Wunderground v.1.15,2013-02-06 03:52:00,
2013-02-05 19:58:00,44.6,41.3,29.93,SSE,160,0.0,1.0,88,0.00,,,0.02,Wunderground v.1.15,2013-02-06 03:58:00,
2013-02-05 20:04:00,44.5,41.2,29.93,SSE,160,0.0,2.0,88,0.00,,,0.02,Wunderground v.1.15,2013-02-06 04:04:00,
2013-02-05 20:10:00,44.4,41.1,29.93,SSE,160,0.0,0.0,88,0.00,,,0.02,Wunderground v.1.15,2013-02-06 04:10:00,
2013-02-05 20:16:00,44.3,41.0,29.93,SSE,160,0.0,0.0,88,0.00,,,0.02,Wunderground v.1.15,2013-02-06 04:16:00,
2013-02-05 20:22:00,44.1,40.8,29.93,SSE,160,0.0,1.0,88,0.00,,,0.02,Wunderground v.1.15,2013-02-06 04:22:00,
2013-02-05 20:28:00,44.0,40.7,29.93,SSE,160,0.0,1.0,88,0.00,,,0.02,Wunderground v.1.15,2013-02-06 04:28:00,
2013-02-05 20:34:00,43.8,40.5,29.94,SSE,160,0.0,0.0,88,0.00,,,0.02,Wunderground v.1.15,2013-02-06 04:34:00,
2013-02-05 20:40:00,43.6,40.3,29.94,SSE,160,0.0,0.0,88,0.00,,,0.02,Wunderground v.1.15,2013-02-06 04:40:00,
2013-02-05 20:46:00,43.5,40.5,29.94,SSE,160,0.0,0.0,89,0.00,,,0.02,Wunderground v.1.15,2013-02-06 04:46:00,
2013-02-05 20:52:00,43.5,40.5,29.94,SSE,160,0.0,0.0,89,0.00,,,0.02,Wunderground v.1.15,2013-02-06 04:52:00,
2013-02-05 20:58:00,43.4,40.4,29.95,SSE,160,0.0,1.0,89,0.00,,,0.02,Wunderground v.1.15,2013-02-06 04:58:00,
2013-02-05 21:00:00,43.4,40.4,29.95,SSE,160,0.0,0.0,89,0.00,,,0.02,Wunderground v.1.15,2013-02-06 05:00:00,
2013-02-05 21:04:00,43.4,40.4,29.95,SSE,160,0.0,0.0,89,0.00,,,0.02,Wunderground v.1.15,2013-02-06 05:04:00,
2013-02-05 21:08:00,43.4,40.4,29.95,SSE,160,1.0,1.0,89,0.00,,,0.02,Wunderground v.1.15,2013-02-06 05:08:00,
2013-02-05 21:10:00,43.4,40.4,29.96,SSE,160,1.0,1.0,89,0.00,,,0.02,Wunderground v.1.15,2013-02-06 05:10:00,
2013-02-05 21:16:00,43.4,40.4,29.96,SSE,160,0.0,1.0,89,0.00,,,0.02,Wunderground v.1.15,2013-02-06 05:16:00,
2013-02-05 21:22:00,43.4,40.4,29.95,SSE,160,0.0,0.0,89,0.00,,,0.03,Wunderground v.1.15,2013-02-06 05:22:00,
2013-02-05 21:28:00,43.4,40.7,29.96,SSE,160,0.0,0.0,90,0.00,,,0.03,Wunderground v.1.15,2013-02-06 05:28:00,
2013-02-05 21:34:00,43.4,40.7,29.96,SSE,160,0.0,1.0,90,0.00,,,0.03,Wunderground v.1.15,2013-02-06 05:34:00,
2013-02-05 21:40:00,43.4,40.7,29.96,SSE,160,0.0,0.0,90,0.00,,,0.03,Wunderground v.1.15,2013-02-06 05:40:00,
2013-02-05 21:46:00,43.4,40.7,29.96,SSE,160,0.0,1.0,90,0.00,,,0.03,Wunderground v.1.15,2013-02-06 05:46:00,
2013-02-05 21:52:00,43.4,40.7,29.96,SSE,160,1.0,1.0,90,0.00,,,0.03,Wunderground v.1.15,2013-02-06 05:52:00,
2013-02-05 21:58:00,43.4,40.9,29.97,SSE,160,0.0,1.0,91,0.00,,,0.03,Wunderground v.1.15,2013-02-06 05:58:00,
2013-02-05 22:04:00,43.4,40.9,29.97,SSE,160,0.0,1.0,91,0.00,,,0.03,Wunderground v.1.15,2013-02-06 06:04:00,
2013-02-05 22:10:00,43.4,40.9,29.97,South,179,1.0,1.0,91,0.00,,,0.03,Wunderground v.1.15,2013-02-06 06:10:00,
2013-02-05 22:16:00,43.4,40.9,29.97,SSE,163,1.0,3.0,91,0.00,,,0.03,Wunderground v.1.15,2013-02-06 06:16:00,
2013-02-05 22:22:00,43.4,40.9,29.97,SE,144,1.0,2.0,91,0.00,,,0.03,Wunderground v.1.15,2013-02-06 06:22:00,
2013-02-05 22:28:00,43.4,40.9,29.96,SE,144,1.0,2.0,91,0.00,,,0.03,Wunderground v.1.15,2013-02-06 06:28:00,
2013-02-05 22:34:00,43.4,40.9,29.96,SE,144,1.0,1.0,91,0.00,,,0.03,Wunderground v.1.15,2013-02-06 06:34:00,
2013-02-05 22:40:00,43.3,40.8,29.96,SE,144,1.0,1.0,91,0.00,,,0.03,Wunderground v.1.15,2013-02-06 06:40:00,
2013-02-05 22:46:00,43.3,40.8,29.97,SE,145,1.0,2.0,91,0.00,,,0.03,Wunderground v.1.15,2013-02-06 06:46:00,
2013-02-05 22:52:00,43.3,40.8,29.97,SE,145,0.0,0.0,91,0.00,,,0.03,Wunderground v.1.15,2013-02-06 06:52:00,
2013-02-05 22:58:00,43.3,40.8,29.97,SE,145,0.0,2.0,91,0.00,,,0.03,Wunderground v.1.15,2013-02-06 06:58:00,
2013-02-05 23:04:00,43.2,40.8,29.97,SE,145,0.0,0.0,91,0.00,,,0.03,Wunderground v.1.15,2013-02-06 07:04:00,
2013-02-05 23:10:00,43.1,40.7,29.98,SE,145,0.0,0.0,91,0.00,,,0.03,Wunderground v.1.15,2013-02-06 07:10:00,
2013-02-05 23:16:00,43.1,40.7,29.98,SE,145,0.0,1.0,91,0.00,,,0.03,Wunderground v.1.15,2013-02-06 07:16:00,
2013-02-05 23:21:00,43.1,40.7,29.98,SE,145,0.0,0.0,91,0.00,,,0.03,Wunderground v.1.15,2013-02-06 07:21:00,
2013-02-05 23:28:00,43.0,40.6,29.98,SE,145,0.0,0.0,91,0.00,,,0.03,Wunderground v.1.15,2013-02-06 07:28:00,
2013-02-05 23:34:00,43.0,40.6,29.99,SE,145,0.0,0.0,91,0.00,,,0.03,Wunderground v.1.15,2013-02-06 07:34:00,
2013-02-05 23:40:00,43.0,40.6,29.99,SE,145,0.0,0.0,91,0.00,,,0.03,Wunderground v.1.15,2013-02-06 07:40:00,
2013-02-05 23:46:00,43.1,40.9,29.98,SE,145,0.0,1.0,92,0.00,,,0.03,Wunderground v.1.15,2013-02-06 07:46:00,
2013-02-05 23:52:00,43.1,40.9,29.98,SE,145,0.0,0.0,92,0.00,,,0.03,Wunderground v.1.15,2013-02-06 07:52:00,
2013-02-05 23:58:00,43.1,40.9,29.99,SE,145,0.0,0.0,92,0.00,,,0.03,Wunderground v.1.15,2013-02-06 07:58:00,